Uitslag Belgian Triathlon Championship LD top 3

# Naam Totaal
1 Brydenbach Tim 03:45:05 87.19
2 Devriendt Dennis 03:45:53 85.78
3 Goetstouwers Stenn 03:46:48 85.55
4 Brems Willem 03:51:20 84.39
5 Van Houtem Timothy 03:51:59 84.22
6 Borghs Bart 03:55:23 83.35
7 Dekker Martijn 03:55:52 83.23
8 Schrooyen Bart 03:59:19 82.34
9 Martens Bob 03:59:34 82.28
10 Auverdin Nicolas 03:59:44 82.23
11 De Vrieze Bart 03:59:59 82.17
12 Van Gerwen Tycho 04:00:58 81.92
13 Dewilde Michael 04:01:44 81.72
14 Rolin Boris 04:02:12 81.60
15 Van Rie Koen 04:02:34 81.51
16 Olaria Terrence 04:03:16 81.33
17 Preem Kurt 04:03:48 81.19
18 Cottyn Gilles 04:04:18 81.06
19 Verstraete Maxime 04:04:40 80.97
20 Denis Sylvain 04:05:23 80.79
21 Pex Nelis 04:05:54 80.65
22 Clément François 04:06:46 80.43
23 Brands Chris 04:06:58 80.38
24 Penne Pieterjan 04:07:16 80.30
25 Kremers Jurgen 04:08:15 80.05
26 Lagae Korneel 04:09:16 79.79
27 Kwakkel Guido 04:09:18 79.78
28 Verbeke Bert 04:09:54 79.63
29 Dalaiden Quentin 04:11:51 79.13
30 Hoofstat Ramses 04:11:59 79.09
31 Philippen Thomas 04:12:13 79.03
32 Huyberechts Nico 04:12:22 79.00
33 Tops Dimitri 04:12:24 78.99
34 Verlet Benjamin 04:12:25 78.98
35 Denis Kevin 04:13:01 78.83
36 Devliegher Arne 04:13:38 78.67
37 Bruggeman Tom 04:13:43 78.65
38 Coysman Joke 04:14:00 82.81
39 Vercalsteren Kenn 04:14:11 78.53
40 Christiaens Thomas 04:14:23 78.48
41 Reding François 04:14:52 78.35
42 Flier Bert 04:14:53 78.35
43 Hastir Julien 04:15:28 78.20
44 Mombaerts Johan 04:15:33 78.18
45 Van Hamme Hugo 04:15:35 78.17
46 Gunther Bernar 04:15:41 78.14
47 De Wever Stef 04:15:41 78.14
48 Van Biervliet Karl 04:16:58 77.82
49 Lauwers Aurélien 04:17:09 77.77
50 Peeters Benny 04:17:33 77.67
51 PRINS Ronald 04:17:41 77.63
52 Robert Mijwaart 04:19:03 77.28
53 Van Espen Fabrice 04:19:10 77.25
54 Nellen Maïk 04:19:15 77.23
55 Candel Bart 04:19:30 77.17
56 Van Driessche Niels 04:19:49 77.09
57 Colson Philippe 04:20:24 76.94
58 Vanassche Marc 04:20:28 76.92
59 Huyberechts Dirk 04:20:38 76.88
60 Villette Raphael 04:20:38 76.88
61 Frey Vincenz 04:20:49 76.83
62 Bergsma Alex 04:21:31 76.65
63 De Bouw Tim 04:22:32 76.39
64 Vaast Arnaud 04:22:35 76.38
65 Meeus Nik 04:22:59 76.27
66 Ito Hisashi 04:23:56 76.03
67 Weuts Karolien 04:24:04 79.28
68 Volkaerts Koen 04:24:24 75.91
69 Van Daele Nico 04:24:29 75.89
70 Nerrinck Johan 04:24:59 75.76
71 De Boer Richard 04:25:18 75.68
72 Rulands Tim 04:25:21 75.67
73 Liekens Johan 04:25:32 75.62
74 Debruyne Dieter 04:25:34 75.61
75 Van Eykeren Frederik 04:25:39 75.59
76 Vandebrouck Geoffrey 04:25:59 75.50
77 BonnechÈre Bruno 04:26:12 75.45
78 De Reydt Steven 04:26:31 75.37
79 Wouters Patrick 04:26:35 75.35
80 Stox Dietrich 04:26:42 75.32
81 Smet Luc 04:26:48 75.29
82 Cauwelier Wannes 04:26:50 75.29
83 Vanden Daelen Leen 04:27:03 78.59
84 Aerden Danek 04:27:24 75.14
85 Thomas Jean-françois 04:27:39 75.08
86 De vos Gert 04:27:45 75.05
87 Liegeois Vincent 04:28:03 74.97
88 Toelants Stefan 04:28:11 74.94
89 Leblanc Renaud 04:28:15 74.92
90 Sermon Ronald 04:28:23 74.89
91 Reyniers Geert 04:28:43 74.80
92 Raats Hans 04:29:47 74.53
93 Lenzen Robert 04:30:08 74.44
94 Van Outheusden Laur 04:30:24 74.37
95 Bader Régis 04:30:46 74.28
96 Lyssens Benny 04:30:49 74.26
97 De Jaegher Lieven 04:30:51 74.26
98 Cornet Denis 04:30:54 74.24
99 Brouck Frederic 04:31:00 74.22
100 Henning Florian 04:31:01 74.21
101 Brinkman Teun 04:31:14 74.16
102 Fick Peter 04:31:15 74.15
103 De Boer Onno 04:31:50 74.00
104 LANTREBECQ Benjamin 04:32:02 73.95
105 Genty Stephane 04:32:05 73.94
106 Danemark Maxime 04:33:05 73.68
107 Lenaerts Sven 04:33:10 73.66
108 Metten Davy 04:33:40 73.53
109 Gheysens Jan 04:33:56 73.47
110 Bosch Rene 04:34:08 73.41
111 Peeters Werner 04:34:09 73.41
112 Baert Jimmy 04:34:24 73.35
113 Ottevaere Charlene 04:34:26 76.88
114 Fickers Daniel 04:34:54 73.22
115 SERWY Florian 04:35:08 73.16
116 Deom Julien 04:35:11 73.15
117 MoiniÉ Gil 04:35:16 73.12
118 Zijlstra Erik 04:35:29 73.07
119 DERNIER Alexandre 04:35:38 73.03
120 Van Binsbergen Hann 04:35:41 73.02
121 Ostheimer Volker 04:35:52 72.97
122 Verrue Vincent 04:35:54 72.96
123 Thirot Benoit 04:35:55 72.96
124 Vannitsen Ben 04:35:59 72.94
125 Postiaux Jonathan 04:36:35 72.79
126 Benoit Thomas 04:36:38 72.77
127 Becker Julien 04:37:08 72.65
128 Castermans Christoph 04:37:09 72.64
129 Haesen Lionel 04:37:24 72.58
130 GÖldner René 04:37:31 72.55
131 Stassen Renaud 04:37:42 72.50
132 Moonen Gert 04:37:51 72.46
133 Gigot Benoit 04:37:56 72.44
134 Gouwkens Joeri 04:38:04 72.41
135 Stegers Marcel 04:38:37 72.27
136 Bastien Nicolas 04:39:06 72.14
137 Boom Nico 04:39:26 72.06
138 Stempher Anton 04:39:28 72.05
139 Van Coninckxloey Ivan 04:39:31 72.03
140 Nezer Jimmy 04:40:04 71.89
141 Devos Caroline 04:40:06 75.57
142 Bakker David 04:40:26 71.80
143 Van Dyck Peter 04:40:33 71.77
144 peetroons filip 04:40:35 71.76
145 Cuyvers Vanessa 04:40:48 75.41
146 Parotte Frédéric 04:41:22 71.56
147 Mulder Danny 04:41:25 71.55
148 Saller Jaap 04:41:30 71.53
149 Wouters Peter 04:41:46 71.46
150 De Dobbelaere Jan 04:41:53 71.43
151 Dejong Daniel 04:42:31 71.27
152 Rummler-kihm Tobias 04:42:39 71.23
153 Spits Vincent 04:42:44 71.21
154 Devezaux De Lavergne Jm 04:42:51 71.18
155 Meynen Jan 04:43:00 71.14
156 Dans Pierre 04:43:28 71.02
157 Van Hooren Simon 04:43:35 70.99
158 Cremer Roger 04:43:37 70.98
159 Brackman Thierry 04:44:18 70.81
160 Bonomi Nicolas 04:44:20 70.80
161 Van driessche Mirco 04:44:21 70.80
162 Hubert Pierre 04:44:26 70.77
163 Voogt Fabrice 04:44:33 70.74
164 Jamart Guillaume 04:44:40 70.71
165 Hattas Kurt 04:44:49 70.68
166 Joris Ken 04:44:50 70.67
167 Terryn Terryn 04:45:02 70.62
168 Adam Pascal 04:45:05 70.61
169 Wauthelet Samuel 04:45:29 70.50
170 Mertens Marc 04:45:32 70.49
171 Dammekens Mandy 04:45:34 74.31
172 Halin Grégory 04:45:38 70.47
173 Desmet Koen 04:45:43 70.44
174 Jacobs Olivier 04:45:44 70.44
175 SchÄfer André 04:45:59 70.38
176 Marckx Jan 04:46:10 70.33
177 Stevens Kristof 04:46:11 70.33
178 Staszak Kevin 04:46:13 70.32
179 Moreel Merijn 04:46:16 70.30
180 Van Craen Michael 04:46:36 70.22
181 Coppoolse Adriaan 04:46:51 70.15
182 Guillaume Denis 04:46:52 70.15
183 Mertens Kristiaan 04:47:42 69.94
184 Brakenhoff - De Vrie 04:47:49 73.79
185 Brunen Burkhard 04:48:37 69.70
186 Collet Christophe 04:48:45 69.67
187 BougÉ Frank 04:48:47 69.66
188 Blancke Hugues 04:48:49 69.65
189 Moens Patrick 04:48:57 69.62
190 Delhalle Thomas 04:49:01 69.60
191 Meyrant Philippe 04:49:10 69.56
192 Angillis Eddy 04:49:15 69.54
193 Vanmarcke Stan 04:49:24 69.50
194 Van Der Schans Peter 04:49:32 69.47
195 Vercaigne Andy 04:49:39 69.44
196 Loggen Jan 04:50:20 69.26
197 Puissant Nicolas 04:50:28 69.23
198 Burrion Paul-henri 04:50:38 69.18
199 Adyns Vincent 04:50:52 69.12
200 COLON Jonathan 04:51:48 68.89
201 Werneke Jens 04:51:57 68.85
202 Erler Joeri 04:52:49 68.62
203 Van Reeth Luc 04:53:02 68.57
204 De Weghe Mario 04:53:20 68.49
205 Corveleijn Albert 04:53:30 68.45
206 Van Ampting Mark 04:53:33 68.44
207 Goffinet Florence 04:53:40 72.44
208 Doggen Ralph 04:54:09 68.28
209 Joosen Roben 04:54:12 68.27
210 Beels Bruno 04:54:29 68.20
211 Bouwens Steven 04:54:57 68.08
212 Van cauwenberg Karel 04:55:11 68.02
213 Bernsmann Jan-simeo 04:55:30 67.94
214 Van Linden Ju?rgen 04:55:33 67.92
215 Hendrickx Kilian 04:56:07 67.78
216 Vast Bruno 04:56:09 67.77
217 De Leeuw Christophe 04:56:22 67.71
218 Knops Sam 04:56:23 67.71
219 Fore Jurgen 04:56:32 67.67
220 Eijkelboom Jacomina 04:56:45 71.72
221 Merchie Frederic 04:57:12 67.50
222 Dehandtschutter Evy 04:57:24 71.57
223 De Meester Arnaud 04:57:30 67.42
224 Thiry Lénaïc 04:57:44 67.36
225 Vissers Leo 04:57:49 67.34
226 Descamps Marc 04:57:51 67.33
227 Brouwers Simon 04:57:57 67.31
228 Cappaert -paulus Lieve 04:58:01 71.43
229 Lodi Giacomo 04:58:23 67.20
230 Lips Daniel 04:58:25 67.19
231 Depoers Sebastien 04:58:25 67.19
232 Pennings Dimitri 04:58:32 67.16
233 Lauwers David 04:58:39 67.13
234 Vercammen Kurt 04:58:44 67.11
235 Geerts Wim 04:58:56 67.06
236 Van Der Maat Geoffrey 04:59:06 67.01
237 Troch Nils 04:59:23 66.94
238 Bollette Bernard 04:59:35 66.89
239 Vanhandenhoven Pas 04:59:37 66.88
240 MÜLLER Johannes 05:00:39 66.62
241 Bourguignon Laurent 05:00:47 66.58
242 Pierre Etienne 05:00:49 66.57
243 Blomme Marieke 05:00:50 70.78
244 Zandstra Heleen 05:00:54 70.76
245 Dogot Raphael 05:01:04 66.51
246 Van Vliet Ton 05:01:22 66.43
247 Baijot Laurent 05:01:28 66.41
248 Dedoyard Noel 05:01:39 66.36
249 De Clercq Pieter 05:01:49 66.32
250 Schmit Sébastien 05:01:58 66.28
251 Jurion Pascal 05:01:59 66.27
252 Briers Maarten 05:02:14 66.21
253 Tillieux Sueli 05:02:38 70.36
254 GÖldner René 05:03:06 65.99
255 Loup Ulrich 05:03:09 65.98
256 Bagijn Jorn 05:03:22 65.92
257 Tondeur Jonathan 05:03:25 65.91
258 Roggendorf Thomas 05:03:32 65.88
259 Laurijssens Kris 05:03:37 65.86
260 Gilson Felicien 05:03:48 65.81
261 Van Dorpe Norbert 05:03:49 65.80
262 De Munck Ellen 05:03:52 70.08
263 Scheffers Rob 05:04:03 65.74
264 Vercammen Nick 05:04:12 65.71
265 Baert Iwan 05:04:22 65.66
266 Jansen Andreas 05:04:36 65.60
267 Cuypers Walter 05:04:53 65.53
268 Ladwig Matthias 05:05:04 65.48
269 Catteau Stan 05:05:31 65.37
270 Delespesse Luc 05:05:35 65.35
271 Roobrouck Jo 05:05:40 65.33
272 DONATI Emmanuel 05:05:44 65.31
273 Fonck Jochen 05:06:32 65.11
274 Ghomraoui Bilal 05:06:36 65.09
275 Schmidt Maarten 05:06:59 64.99
276 Mariani Davide 05:07:08 64.95
277 Langohr Julien 05:07:11 64.94
278 Collot Jo 05:07:17 64.92
279 Oorsprong-alta Maria 05:07:21 69.27
280 Delwasse Joel 05:07:22 64.89
281 Coulibaly Oumar 05:07:36 64.83
282 Munneke Moniek 05:07:49 69.16
283 Van Den Beuken Peter 05:08:02 64.72
284 Dekeirel Pol 05:08:12 64.68
285 Bisschops Pieter 05:08:13 64.68
286 Piret Bernard 05:08:25 64.62
287 Muchery Xavier 05:08:32 64.60
288 Parewyck Dimitri 05:08:38 64.57
289 Dor Vincent 05:08:45 64.54
290 Colmant Jean-pascal 05:08:59 64.48
291 Terryn Klaas 05:09:05 64.45
292 Nerrinck Philippe 05:09:08 64.44
293 Lambert Benjamin 05:09:14 64.42
294 Ziegler Conny 05:10:01 68.65
295 Van Hoorebeke Steve 05:10:04 64.20
296 Samsel Frank 05:10:09 64.18
297 Alexandre Rudy 05:10:29 64.10
298 Neel Erik 05:10:58 63.97
299 Kiebooms Veerle 05:11:23 68.34
300 Robberechts Yves 05:11:46 63.77
301 Bertona Anna 05:11:49 68.24
302 Lambotte Stephan 05:12:15 63.64
303 Hermans Jef 05:13:58 63.20
304 Ost Maarten 05:14:07 63.16
305 Linde Gerard 05:14:10 63.15
306 Dousy Frederik 05:14:11 63.15
307 Vanderheyden Domini 05:14:11 63.15
308 Declerck Jeroen 05:14:19 63.11
309 Deschepper Curt 05:14:52 62.97
310 Zirwes Christian 05:15:33 62.80
311 Bellinga Pim 05:15:49 62.73
312 De Maeyer Stefaan 05:15:51 62.72
313 Ladry Sebastien 05:16:14 62.62
314 Vandevoorde Emilie 05:16:15 67.21
315 Van Dessel Geert 05:16:19 62.60
316 Holtz Alain 05:16:21 62.59
317 Sprumont Francois 05:16:28 62.56
318 Botterweck Pjotr 05:17:32 62.29
319 Sottiaux Jérôme 05:17:56 62.19
320 Ger Vis 05:18:12 62.12
321 Hollanders David 05:18:57 61.92
322 Steisel Cedric 05:19:08 61.88
323 Elbers Erik 05:19:20 61.83
324 Jansen Majke 05:19:28 66.47
325 Buschop Hilde 05:19:36 66.44
326 Connelly William 05:20:23 61.56
327 Marx Gilles 05:20:26 61.54
328 Janssen Koen 05:20:47 61.45
329 Sarna Pierantonio 05:21:01 61.39
330 Willems Tom 05:21:57 61.16
331 Hubert Rachel 05:22:06 65.86
332 Leemans Gerrit 05:23:39 60.72
333 Liedtke Stefan 05:23:41 60.71
334 Czarsbon Dirk 05:23:56 60.65
335 Arent Jan Linde 05:23:57 60.64
336 Schirmer Karsten 05:24:10 60.59
337 Claes Richard 05:24:20 60.54
338 Depuydt David 05:24:35 60.48
339 MÜller Michael 05:24:43 60.45
340 De Vries Robert 05:25:13 60.32
341 Coenen Rick 05:25:48 60.17
342 Lespagnard Thierry 05:26:21 60.03
343 Dickmeis Michael 05:26:31 59.98
344 Behbehani Ramin 05:26:57 59.87
345 Vandeneijnde Guido 05:27:02 59.85
346 LAMY Stéphane 05:27:26 59.75
347 Zielke Carsten 05:27:33 59.72
348 Zwiers Marcel 05:28:05 59.58
349 Vaes Marc 05:28:15 59.54
350 Ceressiaux Hervé 05:28:16 59.54
351 Weicherding Claudine 05:28:51 64.30
352 Tacq Luc 05:29:17 59.28
353 Crabbe David 05:29:28 59.23
354 Beyaert Gerd 05:29:48 59.14
355 Saublens Michael 05:29:49 59.14
356 Hespel David 05:29:53 59.12
357 Crefcoeur Philippe 05:29:59 59.10
358 Philippen Thomas 05:31:22 58.74
359 Brunhuber Oliver 05:31:40 58.66
360 Van Osselaer Jan 05:31:42 58.66
361 Degallaix Gilles 05:31:48 58.63
362 Lambert Anne Sophie 05:31:51 63.61
363 Klaarenbeek Machiel 05:31:53 58.61
364 Verheyden Sam 05:32:52 58.36
365 Prophitius Eduard 05:33:16 58.25
366 Evers Gerald 05:33:24 58.22
367 Dangelo Gianluca 05:34:26 57.95
368 Frennet Philippe 05:34:47 57.87
369 Goossens Damien 05:35:47 57.61
370 Van Der Wal Vincent 05:35:59 57.56
371 De Wolf Sylvie 05:36:07 62.62
372 Bartz Laurence 05:37:31 62.29
373 Van Ittersum Linde 05:38:20 62.11
374 Demets Kurt 05:38:27 56.92
375 Vangeel Bart 05:38:31 56.91
376 Derks Josef 05:38:41 56.87
377 Hekker Dimitri 05:38:56 56.80
378 Schwartz Josiane 05:39:23 61.86
379 Lancelot Yves 05:40:12 56.48
380 Visser Gerrit 05:43:03 55.75
381 Lair Olivier 05:43:21 55.67
382 Crutzen Rik 05:44:50 55.29
383 Philippen Thomas 05:45:02 55.24
384 Wilhelm Frank 05:45:43 55.06
385 Breugelmans Manuel 05:46:21 54.90
386 Ruban Sophie 05:47:21 60.02
387 Gordijn Mark 05:47:50 54.52
388 Peeters Sven 05:49:24 54.12
389 Leroy Alain 05:49:43 54.04
390 Sepulchre Antoine 05:50:19 53.88
391 Govaerts Lieve 05:50:25 59.31
392 Bimmel Indra 05:50:39 59.26
393 Steisel Quentin 05:51:04 53.69
394 Thomas Jean-pol 05:51:16 53.64
395 Eyckmans Philip 05:51:31 53.57
396 Defraene Arturo 05:51:43 53.52
397 Ernst Xavier 05:51:56 53.47
398 Martens Floor 05:52:30 58.83
399 Derweduwen An 05:52:43 58.78
400 DEBAS Eric 05:54:33 52.80
401 Closset Frederick 05:55:44 52.49
402 Philips Peter 05:56:42 52.25
403 Claes Shara 05:56:52 57.82
404 Bestler Susanne 05:56:54 57.81
405 Kaunzner Sabine 05:56:54 57.81
406 Collet Lucas 06:02:18 50.81
407 Van Lerberghe Nicola 06:05:10 50.08
408 Vis-hazelbag Erika 06:07:18 55.41
409 Vrisekoop Perry 06:07:25 49.50
410 Vanesse Myriam 06:08:41 55.09
411 Van De Ven Dany 06:12:06 48.30
412 Van Loon Werner 06:13:33 47.93
413 Hasaers Peter 06:14:03 47.80
414 Ghilain Olivier 06:15:33 47.41
415 Decrouez Amaury 06:15:34 47.41
416 Vandelaer Damien 06:15:55 47.32
417 Sels Joris 06:19:45 46.34
418 Riemer Ulrike 06:20:05 52.45
419 Pinsart Luc 06:23:13 45.45
420 Paquay Johan 06:30:02 43.20
421 Baijot Amandine 06:30:38 49.51

Reacties

  • Nog geen reacties beschikbaar